www.pogodaiklimat.ru
ПОГОДА в Бардуфоссе
Время
(UTC), дата
16 14.10
17 14.10
18 14.10
19 14.10
20 14.10
21 14.10
22 14.10
23 14.10
00 15.10
01 15.10
02 15.10
03 15.10
04 15.10
05 15.10
06 15.10
07 15.10
08 15.10
09 15.10
10 15.10
11 15.10
12 15.10
13 15.10
14 15.10
15 15.10
16 15.10
17 15.10
18 15.10
19 15.10
20 15.10
21 15.10
22 15.10
23 15.10
00 16.10
01 16.10
02 16.10
03 16.10
04 16.10
05 16.10
06 16.10
07 16.10
08 16.10
09 16.10
10 16.10
11 16.10
12 16.10
13 16.10
14 16.10
15 16.10
16 16.10
17 16.10
18 16.10
19 16.10
20 16.10
21 16.10
22 16.10
23 16.10
00 17.10
01 17.10
02 17.10
03 17.10
04 17.10
05 17.10
06 17.10
07 17.10
08 17.10
09 17.10
10 17.10
11 17.10
12 17.10
13 17.10
14 17.10
15 17.10
16 17.10
17 17.10
18 17.10
19 17.10
20 17.10
21 17.10
22 17.10
23 17.10
00 18.10
01 18.10
02 18.10
03 18.10
04 18.10
05 18.10
06 18.10
09 18.10
10 18.10
11 18.10
12 18.10
13 18.10
14 18.10
15 18.10
16 18.10
17 18.10
18 18.10
19 18.10
20 18.10
21 18.10
22 18.10
23 18.10
00 19.10
01 19.10
02 19.10
03 19.10
04 19.10
05 19.10
06 19.10
07 19.10
08 19.10
09 19.10
10 19.10
11 19.10
12 19.10
13 19.10
14 19.10
15 19.10
16 19.10
17 19.10
18 19.10
19 19.10
20 19.10
21 19.10
22 19.10
23 19.10
00 20.10
01 20.10
02 20.10
03 20.10
04 20.10
05 20.10
06 20.10
07 20.10
08 20.10
09 20.10
10 20.10
11 20.10
12 20.10
13 20.10
14 20.10
15 20.10
16 20.10
17 20.10
18 20.10
19 20.10
20 20.10
21 20.10
22 20.10
23 20.10
00 21.10
01 21.10
02 21.10
03 21.10
04 21.10
05 21.10
06 21.10
07 21.10
08 21.10
09 21.10
10 21.10
11 21.10
12 21.10
13 21.10
14 21.10
15 21.10
16 21.10
Ветер
(напр.,м/с)
Видим. Явления Облачность Т
(С)
Тd
(С)
f
(%)
Тe
(С)
Тes
(С)
Комфортность P
(гПа)
Po
(гПа)
Тmin
(С)
Tmax
(С)
R
(мм)
R24
(мм)
S
(см)
ЮЗ 1
{1}
>70 км 1/0
[Ac trans Ci fib]
-7.0 -8.1 92 -9 -9 очень
холодно
1013.0 1003.1
штиль 0
{1}
>70 км 1/0
[Ac trans Ci fib]
-7.8 -8.8 93 -9 -9 очень
холодно
1013.4 1003.4
З 1
{1}
>70 км 1/0
[Ac trans Ci fib]
-8.4 -9.3 93 -11 -11 очень
холодно
1013.7 1003.8 -10.8 +0.6
СЗ 1
{2}
>70 км 1/0
[Ac trans Ci fib]
-9.1 -10.2 92 -11 -11 очень
холодно
1014.0 1004.0
штиль 0
{1}
>70 км 1/0
[]
-10.2 -11.5 90 -11 -11 очень
холодно
1014.3 1004.3
штиль 0
{1}
>70 км 1/0
[Ci fib]
-10.3 -11.6 90 -11 -11 очень
холодно
1014.5 1004.5
штиль 0
{1}
н/о н/о -11.0 -12.4 89 -11 -11 очень
холодно
1014.8 1004.7
СЗ 1
{1}
н/о н/о -11.1 -12.6 89 -13 -13 очень
холодно
1015.1 1005.0
ЮЗ 1
{2}
н/о н/о -12.0 -13.6 88 -14 -14 очень
холодно
1015.3 1005.2
штиль 0
{1}
н/о н/о -11.8 -13.5 87 -12 -12 очень
холодно
1015.4 1005.3
З 1
{1}
н/о н/о -12.1 -13.4 90 -14 -14 очень
холодно
1015.7 1005.6
штиль 0
{1}
н/о н/о -13.0 -14.7 87 -13 -13 очень
холодно
1015.7 1005.6
штиль 0
{1}
>70 км ясно -12.1 -13.5 89 -12 -12 очень
холодно
1015.6 1005.5
штиль 0
{1}
>70 км ясно -12.2 -13.7 89 -12 -12 очень
холодно
1015.7 1005.6
СЗ 1
{1}
н/о н/о -12.6 -14.3 87 -15 -15 очень
холодно
1016.0 1005.9 -13.1 -8.5
штиль 0
{1}
>70 км 1/1 1500 м
[Cu Sc Ac lent Cs]
-11.2 -13.1 86 -11 -11 очень
холодно
1016.2 1006.1
штиль 0
{1}
>70 км 8/8 1000 м
[Cu Sc Ac As Cs]
-5.8 -7.2 90 -7 -7 холодно 1016.4 1006.6
З 1
{1}
>70 км 8/8 1000 м
[Cu Sc Ac As Cs]
-5.8 -7.3 89 -8 -8 очень
холодно
1016.5 1006.6
штиль 0
{1}
>70 км 9/8 1000 м
[Cu Sc Ac As]
-4.8 -6.3 89 -6 -6 холодно 1016.6 1006.7
З 1
{1}
>70 км 9/8 1000 м
[Cu Sc Ac trans]
-3.9 -5.8 87 -6 -6 холодно 1016.7 1006.9
З 1
{1}
45 км осадки на расстоянии 9/8 600 м
[Cu Sc Ac trans]
-3.1 -3.1 100 -6 -6 холодно 1016.8 1007.0
штиль 0
{1}
55 км осадки на расстоянии 9/8 600 м
[Cu Sc Ac trans]
-2.4 -4.9 83 -3 -3 прохладно 1016.9 1007.2
штиль 0
{1}
60 км осадки на расстоянии 9/8 600 м
[Cu Sc Ac As]
-1.6 -4.0 84 -3 -3 прохладно 1017.0 1007.2
штиль 0
{2}
70 км осадки на расстоянии 9/9 600 м
[Cu Sc Ac As]
-2.4 -5.2 81 -3 -3 прохладно 1017.2 1007.4
штиль 0
{1}
70 км 9/9 600 м
[Cu Sc Ac As]
-2.5 -4.4 87 -4 -4 прохладно 1017.3 1007.5
штиль 0
{1}
>70 км 9/8 600 м
[Cu Sc Ac As]
-3.1 -4.5 90 -4 -4 прохладно 1017.4 1007.6
штиль 0
{2}
>70 км 9/8 1000 м
[Cu Sc Ac As]
-4.7 -5.7 93 -6 -6 холодно 1017.7 1007.8 -12.8 0.0
ЮЗ 1
{2}
>70 км 6/5 1000 м
[Sc Ac trans Ci fib]
-5.3 -6.0 95 -8 -8 очень
холодно
1018.0 1008.1
штиль 0
{1}
>70 км 5/4 1000 м
[Sc Ac trans Ci fib]
-6.6 -7.5 93 -8 -8 очень
холодно
1018.4 1008.4
штиль 0
{1}
>70 км 9/8 1000 м
[Sc Ac trans]
-5.9 -6.8 93 -7 -7 холодно 1018.6 1008.7
штиль 0
{2}
н/о н/о -4.7 -5.5 94 -6 -6 холодно 1018.7 1008.8
штиль 0
{1}
н/о н/о -4.7 -5.6 93 -6 -6 холодно 1018.8 1008.9
штиль 0
{2}
н/о н/о -6.0 -6.9 93 -7 -7 холодно 1018.8 1008.9
штиль 0
{1}
н/о н/о -7.4 -8.4 93 -8 -8 очень
холодно
1018.9 1008.9
З 1
{1}
н/о н/о -8.3 -9.5 91 -11 -11 очень
холодно
1018.9 1008.9
штиль 0
{2}
н/о н/о -8.6 -9.6 92 -9 -9 очень
холодно
1019.0 1009.0
З 1
{2}
>70 км 1/1 1000 м
[Sc Ac trans]
-9.4 -10.7 90 -12 -12 очень
холодно
1019.2 1009.1
З 1
{1}
>70 км 1/1 1000 м
[Sc Ac trans]
-9.9 -11.0 92 -12 -12 очень
холодно
1019.1 1009.0
СЗ 1
{2}
>70 км 1/1 1500 м
[Sc Ac lent]
-10.0 -11.2 91 -12 -12 очень
холодно
1019.2 1009.1 -10.3 -4.2
З 1
{1}
>70 км 1/1 1500 м
[Sc Ac trans]
-9.2 -10.7 89 -12 -12 очень
холодно
1019.4 1009.4
штиль 0
{1}
>70 км дым 1/1 <50 м
[Sc Ac trans]
-6.1 -7.9 87 -7 -7 холодно 1019.5 1009.6
штиль 0
{1}
>70 км 1/1 1500 м
[Sc]
-3.6 -5.4 87 -5 -4 холодно 1019.2 1009.4
штиль 0
{1}
>70 км 1/1 1500 м
[Sc Ac trans]
-1.2 -4.7 77 -2 -1 по сезону 1019.0 1009.2
В 1
{1}
>70 км 1/1 1500 м
[Sc Ac trans]
-1.5 -4.7 79 -4 -3 прохладно 1018.8 1009.1
СВ 1
{1}
>70 км 1/1 1500 м
[Sc Ac trans]
-0.9 -4.3 78 -3 -2 прохладно 1018.8 1009.0
В 1
{1}
>70 км 1/0
[Ac trans]
-0.4 -4.7 73 -2 -2 по сезону 1018.6 1008.8
ЮЗ 1
{1}
>70 км 1/0
[Ac trans]
-0.9 -4.5 77 -3 -3 прохладно 1018.5 1008.8
ЮЗ 1
{1}
>70 км ясно -4.9 -6.1 91 -7 -7 холодно 1018.5 1008.6
штиль 0
{1}
>70 км ясно -6.6 -7.6 93 -8 -8 очень
холодно
1018.5 1008.5
штиль 0
{1}
>70 км ясно -7.8 -8.8 93 -9 -9 очень
холодно
1018.7 1008.7
З 1
{1}
>70 км ясно -8.8 -10.1 90 -11 -11 очень
холодно
1018.6 1008.6 -10.6 -0.2
штиль 0
{2}
>70 км ясно -9.0 -10.0 92 -10 -10 очень
холодно
1018.9 1008.9
ЮЗ 1
{1}
>70 км в посл. час зёрна ясно -10.3 -11.8 89 -13 -13 очень
холодно
1018.8 1008.7
З 1
{1}
>70 км ясно -10.5 -11.6 92 -13 -13 очень
холодно
1018.8 1008.7
З 1
{1}
н/о н/о -10.8 -12.2 89 -13 -13 очень
холодно
1018.5 1008.4
З 1
{1}
н/о н/о -11.6 -13.3 87 -14 -14 очень
холодно
1018.2 1008.1
З 1
{2}
н/о н/о -11.8 -13.4 88 -14 -14 очень
холодно
1018.2 1008.1
СЗ 1
{1}
н/о н/о -12.2 -13.7 89 -14 -14 очень
холодно
1017.8 1007.7
штиль 0
{1}
н/о н/о -12.4 -14.1 87 -12 -12 очень
холодно
1017.6 1007.4
штиль 0
{1}
н/о н/о -12.5 -14.1 88 -13 -13 очень
холодно
1017.1 1006.9
штиль 0
{1}
>70 км 1/0
[]
-12.8 -14.3 88 -13 -13 очень
холодно
1016.8 1006.7
штиль 0
{1}
>70 км 3/0
[Ac trans Ci fib]
-13.0 -14.7 87 -13 -13 очень
холодно
1016.5 1006.3
штиль 0
{1}
>70 км 5/0
[Ac trans Ci sp]
-13.2 -15.0 86 -13 -13 очень
холодно
1016.1 1005.9 -13.5 -8.7
штиль 0
{1}
>70 км 5/0
[Ac As Ci sp]
-12.3 -14.2 86 -12 -12 очень
холодно
1015.8 1005.7
З 1
{1}
>70 км 4/0
[]
-9.3 -10.9 88 -12 -12 очень
холодно
1015.5 1005.4
штиль 0
{1}
>70 км 4/0
[Ci sp]
-7.6 -9.2 88 -8 -8 очень
холодно
1015.0 1005.0
штиль 0
{1}
>70 км 4/0
[]
-4.5 -6.4 87 -6 -5 холодно 1014.2 1004.4
В 1
{2}
>70 км 1/0
[]
-4.0 -6.4 83 -6 -6 холодно 1013.6 1003.8
В 1
{2}
>70 км 1/0
[Ci fib]
-2.5 -6.0 77 -5 -4 холодно 1013.0 1003.3
В 2
{3}
>70 км 1/0
[]
-1.9 -5.7 75 -6 -5 холодно 1012.6 1002.9
Ю 2
{3}
>70 км 1/0
[]
-1.2 -7.1 64 -5 -5 холодно 1012.2 1002.5
ЮВ 2
{4}
>70 км 1/0
[Ci fib]
-3.3 -7.6 72 -7 -7 холодно 1012.0 1002.3
Ю 3
{4}
>70 км 3/0
[]
-3.5 -8.0 71 -9 -9 очень
холодно
1011.8 1002.0
ЮВ 2
{3}
>70 км 3/0
[]
-5.0 -8.4 77 -9 -9 очень
холодно
1011.4 1001.6
ЮВ 1
{4}
>70 км 4/0 1500 м
[Ac trans Ci fib]
-6.0 -8.1 85 -8 -8 очень
холодно
1010.9 1001.1 -13.2 -1.1
В 1
{2}
>70 км 5/0
[Ac trans Ci fib]
-5.2 -8.3 79 -7 -7 холодно 1010.4 1000.6
В 2
{3}
>70 км 6/0
[Ac As Ci fib]
-5.5 -8.1 82 -10 -10 очень
холодно
1010.1 1000.2
В 2
{4}
>70 км 6/0 1500 м
[Ac As Ci fib]
-3.8 -8.0 73 -8 -8 очень
холодно
1009.5 999.7
В 1
{4}
н/о н/о -5.1 -7.3 85 -7 -7 холодно 1009.1 999.3
З 1
{1}
н/о н/о -4.5 -7.2 81 -7 -7 холодно 1008.7 999.0
З 1
{4}
н/о н/о -4.0 -6.4 83 -6 -6 холодно 1008.4 998.6
штиль 0
{1}
н/о н/о -3.8 -5.9 85 -5 -5 холодно 1008.0 998.2
Ю 1
{1}
н/о н/о -3.6 -5.9 84 -6 -6 холодно 1007.5 997.7
штиль 0
{2}
н/о н/о -3.4 -5.7 84 -4 -4 прохладно 1007.3 997.6
ЮВ 1
{2}
65 км 9/5 600 м
[Sc Ac As]
-3.6 -5.5 87 -6 -6 холодно 1007.2 997.5
З 1
{2}
70 км 9/4 600 м
[Sc Ac As]
-3.8 -5.2 90 -6 -6 холодно 1006.9 997.2
З 1
{2}
>70 км 9/6 600 м
[Sc Ac As]
-3.7 -5.2 89 -6 -6 холодно 1006.8 997.1 -6.1 -3.3
ЮВ 1
{2}
>70 км 9/8 1000 м
[Sc Ac As Cs]
-0.8 -3.6 81 -3 -3 прохладно 1007.1 997.4
З 1
{2}
>70 км в посл. час переохл. осадки (гололёд) {туман} 9/8 600 м
[Sc Ac As]
-0.2 -3.1 81 -2 -2 по сезону 1007.3 997.7
штиль 0
{1}
65 км осадки на расстоянии 9/8 600 м
[Sc Ac As]
+0.3 -3.0 78 -1 -1 по сезону 1007.3 997.7
штиль 0
{2}
30 км слаб. снег 9/8 600 м
[Sc Ac As]
+0.3 -2.6 81 -1 -1 по сезону 1007.5 997.9
штиль 0
{2}
55 км в посл. час снег {дождь} 9/6 600 м
[Sc Ac As]
+0.3 -2.2 83 -1 -1 по сезону 1007.6 998.0
штиль 0
{2}
65 км осадки на расстоянии 8/6 300 м
[Sc Ac trans Ci fib]
-1.0 -2.4 90 -2 -2 по сезону 1007.8 998.2
З 1
{1}
70 км осадки на расстоянии 8/6 300 м
[Sc Ac trans Ci fib]
-2.2 -3.2 93 -5 -5 холодно 1008.2 998.6
Ю 1
{3}
60 км осадки на расстоянии 9/8 300 м
[Cu Sc Ac As]
-2.9 -3.7 94 -5 -5 холодно 1008.4 998.7
штиль 0
{1}
30 км слаб. ливневой снег 9/9 300 м
[Cu Sc Ac As]
-2.6 -3.2 96 -4 -4 прохладно 1008.7 999.0
штиль 0
{3}
40 км в посл. час ливневой снег {дождь} 9/9 100 м
[Cu Sc Ac As]
-2.0 -2.7 95 -3 -3 прохладно 1008.9 999.2 -4.2 +0.4
штиль 0
{1}
60 км осадки на расстоянии 9/9 100 м
[Cu Sc Ac As]
-1.9 -2.7 94 -3 -3 прохладно 1009.0 999.3
З 1
{2}
15 км слаб. ливневой дождь со снегом 9/9 100 м
[Cu Sc Ac As]
-1.8 -2.5 95 -4 -4 прохладно 1009.3 999.6 0.2
ЮВ 1
{2}
55 км в посл. час ливневой снег 9/9 200 м
[Cu Sc Ac As]
-1.8 -2.4 96 -4 -4 прохладно 1009.8 1000.1
штиль 0
{2}
н/о н/о -1.9 -2.4 96 -3 -3 прохладно 1010.1 1000.4
штиль 0
{1}
н/о н/о -2.4 -2.9 96 -4 -4 прохладно 1010.1 1000.4
штиль 0
{2}
н/о н/о -3.1 -3.6 96 -4 -4 прохладно 1010.6 1000.9
штиль 0
{1}
н/о н/о -2.9 -3.5 96 -4 -4 прохладно 1010.9 1001.1
ЮЗ 1
{2}
н/о н/о -2.9 -3.4 96 -5 -5 холодно 1011.2 1001.5
ЮЗ 1
{2}
н/о н/о -4.0 -4.5 96 -6 -6 холодно 1011.7 1001.9
Ю 1
{2}
н/о н/о -5.5 -6.1 96 -8 -8 очень
холодно
1012.2 1002.4
СЗ 1
{2}
>70 км 3/1 1500 м
[Sc Ac As]
-6.8 -7.4 95 -9 -9 очень
холодно
1012.9 1003.0
В 2
{2}
>70 км туман на расстоянии 1/1 50 м
[St Ac As]
-7.6 -8.6 93 -12 -12 очень
холодно
1013.4 1003.5 -8.1 -1.7 0.2
В 1
{2}
>70 км туман на расстоянии 1/1 50 м
[St Ac As]
-7.3 -8.4 92 -10 -10 очень
холодно
1013.8 1003.9
Ю 1
{2}
30 км туман на расстоянии 5/4 50 м
[St Ac As]
-5.1 -5.9 94 -8 -7 очень
холодно
1014.2 1004.3
З 1
{1}
600 м переохл. туман ?/? -4.5 -5.1 96 -7 -7 холодно 1014.7 1004.9
В 1
{2}
600 м переохл. туман 3/3 50 м
[St]
-4.1 -4.8 95 -7 -6 холодно 1015.2 1005.4
штиль 0
{2}
70 км туман на расстоянии 3/1 100 м
[St Ac As]
-3.6 -4.5 93 -5 -4 холодно 1015.4 1005.6
штиль 0
{2}
>70 км {туман} 1/1 600 м
[Sc Ac As]
-2.6 -3.5 94 -4 -3 прохладно 1015.7 1005.9
СЗ 1
{2}
>70 км 1/1 600 м
[Cu hum Ac As]
-1.9 -3.0 92 -4 -4 прохладно 1015.9 1006.2
ЮВ 1
{2}
>70 км 1/1 600 м
[Cu hum Ac As]
-3.1 -4.2 92 -5 -5 холодно 1016.4 1006.6
ЮЗ 1
{2}
н/о н/о -5.9 -6.9 93 -8 -8 очень
холодно
1017.0 1007.1
штиль 0
{1}
н/о н/о -7.2 -7.8 95 -8 -8 очень
холодно
1017.5 1007.6
штиль 0
{1}
н/о н/о -8.5 -9.6 92 -9 -9 очень
холодно
1017.9 1007.9
штиль 0
{2}
н/о н/о -9.5 -10.5 92 -10 -10 очень
холодно
1018.3 1008.3 -9.9 -1.4
штиль 0
{2}
н/о н/о -9.9 -11.4 89 -10 -10 очень
холодно
1018.7 1008.6
З 1
{2}
н/о н/о -9.6 -10.8 91 -12 -12 очень
холодно
1019.3 1009.2
СЗ 1
{1}
н/о н/о -10.4 -11.6 91 -13 -13 очень
холодно
1019.7 1009.6
З 1
{1}
н/о н/о -11.0 -12.6 88 -13 -13 очень
холодно
1020.0 1009.8
ЮЗ 1
{1}
н/о н/о -11.0 -12.4 89 -13 -13 очень
холодно
1020.2 1010.1
СЗ 1
{2}
н/о н/о -12.2 -13.7 89 -14 -14 очень
холодно
1020.3 1010.1
З 1
{1}
н/о н/о -13.2 -14.9 87 -16 -16 очень
холодно
1020.4 1010.2
ЮЗ 1
{1}
н/о н/о -13.5 -15.1 88 -16 -16 очень
холодно
1020.3 1010.1
СЗ 1
{1}
н/о н/о -14.2 -15.8 88 -17 -17 очень
холодно
1020.1 1009.9
З 1
{1}
н/о н/о -14.5 -16.3 86 -17 -17 очень
холодно
1019.8 1009.5
штиль 0
{1}
н/о н/о -14.7 -16.6 85 -15 -15 очень
холодно
1019.2 1009.0
СЗ 1
{1}
н/о н/о -14.9 -16.7 86 -17 -17 очень
холодно
1018.8 1008.6 -15.1 -8.7
штиль 0
{1}
н/о н/о -14.6 -16.4 86 -15 -15 очень
холодно
1018.5 1008.3
штиль 0
{2}
>70 км 8/0
[]
-11.1 -12.9 87 -11 -11 очень
холодно
1018.1 1008.0
штиль 0
{2}
>70 км 8/0
[Ac As Ci sp]
-9.2 -10.7 89 -10 -9 очень
холодно
1017.7 1007.6
штиль 0
{2}
>70 км 9/0
[Ac As Ci sp]
-8.1 -9.5 90 -9 -8 очень
холодно
1017.3 1007.3
З 1
{2}
>70 км 9/0
[Ac As Ci sp]
-7.0 -8.3 90 -9 -9 очень
холодно
1017.0 1007.0
штиль 0
{2}
>70 км 9/0
[Ac As]
-6.5 -7.7 91 -7 -7 холодно 1016.2 1006.3
З 1
{2}
>70 км 9/0
[Ac As]
-5.9 -7.2 91 -8 -8 очень
холодно
1015.5 1005.6
ЮЗ 1
{3}
>70 км 10/0
[Ac As]
-6.4 -7.6 91 -9 -9 очень
холодно
1014.8 1004.9
СЗ 1
{3}
>70 км 10/6 1000 м
[Sc Ac As]
-5.8 -6.9 92 -8 -8 очень
холодно
1014.3 1004.4
ЮВ 2
{3}
>70 км 10/8 1000 м
[Sc Ac As Cs]
-5.5 -6.5 93 -10 -10 очень
холодно
1013.4 1003.6
ЮВ 2
{5}
>70 км 10/8 1000 м
[Sc Ac As]
-4.5 -6.8 84 -9 -9 очень
холодно
1013.1 1003.3
Ю 1
{5}
>70 км 9/9 1000 м
[Sc Ac As]
-5.3 -6.7 90 -8 -8 очень
холодно
1012.8 1003.0 -15.0 -4.2
ЮЗ 1
{2}
70 км осадки на расстоянии 10/9 600 м
[Sc Ac As]
-4.9 -6.3 90 -7 -7 холодно 1012.5 1002.7
СВ 2
{3}
65 км осадки на расстоянии 10/9 600 м
[Sc Ac As]
-3.7 -6.9 78 -8 -8 очень
холодно
1011.9 1002.2
ЮВ 3
{6}
70 км 10/9 600 м
[Sc Ac As]
-2.1 -6.0 75 -7 -7 холодно 1011.6 1001.9
В 3
{7}
н/о н/о -3.1 -7.0 74 -8 -8 очень
холодно
1011.1 1001.4
Ю 4
{8}
н/о н/о +0.4 -5.5 65 -5 -5 холодно 1010.6 1001.0
Ю 3
{8}
н/о н/о +1.4 -5.4 61 -3 -3 прохладно 1010.3 1000.7
З 3
{7}
н/о н/о +1.0 -3.9 70 -3 -3 прохладно 1010.3 1000.7
Ю 4
{8}
н/о н/о +0.8 -2.8 77 -4 -4 прохладно 1010.3 1000.7
Ю 3
{6}
н/о н/о +1.0 -2.3 79 -3 -3 прохладно 1010.2 1000.7
ЮВ 1
{7}
45 км осадки на расстоянии 9/5 600 м
[Cu Sc Ac As]
+0.7 -2.1 82 -1 -1 по сезону 1010.2 1000.6
Ю 2
{5}
55 км осадки на расстоянии 9/5 600 м
[Cu Sc Ac As]
+0.9 -2.1 80 -2 -2 по сезону 1010.0 1000.4
ЮВ 1
{8}
22 км слаб. ливневой снег 9/6 300 м
[Cu Sc Ac As]
-0.5 -2.5 86 -3 -3 прохладно 1010.3 1000.7 -5.5 +1.7
штиль 0
{2}
3000 м слаб. ливневой снег н/о +0.2 -0.4 96 -1 -1 по сезону 1010.4 1000.8 2
З 1
{2}
8000 м слаб. ливневой снег 10/9 50 м
[Cu Sc Ac As]
0.0 -0.5 96 -2 -2 по сезону 1010.6 1001.0 0.6
З 1
{3}
12 км слаб. ливневой снег 10/9 50 м
[Cu Sc Ac As]
+0.3 -0.4 95 -2 -2 по сезону 1010.9 1001.3 0.2
В 2
{2}
20 км осадки на расстоянии {ливн. осадки} 10/9 50 м
[Cu Sc Ac As]
0.0 -0.5 96 -4 -4 прохладно 1011.0 1001.4 0.2
штиль 0
{2}
20 км осадки на расстоянии 10/9 50 м
[Cu Sc Ac As]
+0.6 -0.2 94 -1 -1 по сезону 1010.8 1001.2
В 2
{3}
25 км туман на расстоянии {ливн. осадки} 8/6 <50 м
[St Ac As Cs]
0.0 -0.6 96 -4 -4 прохладно 1010.5 1000.9 3
ЮВ 1
{3}
10 км дымка 8/6 50 м
[St Ac As Cs]
-0.2 -0.7 96 -2 -2 по сезону 1010.0 1000.4
Ю 1
{2}
2000 м туман на расстоянии 10/8 50 м
[St Ac As]
-0.4 -0.8 97 -3 -3 прохладно 1009.6 1000.0
штиль 0
{2}
20 км туман на расстоянии 10/8 50 м
[St Ac As]
-0.6 -1.0 97 -2 -2 по сезону 1009.3 999.7
ЮВ 2
{4}
25 км туман на расстоянии 10/8 50 м
[St Ac As]
0.0 -0.8 94 -4 -4 прохладно 1008.7 999.1
Местоположение метеостанции Бардуфосс (Норвегия): широта 69.06 долгота 18.54 высота над уровнем моря 76 м.
В архиве по умолчанию представлена погода в Бардуфоссе за последнюю неделю. Архивные данные за месяц целиком и за предыдущие месяцы, начиная с января 2011 года, Вы можете получить, выбрав интересующий диапазон дат из раскрывающегося списка и нажав кнопку "Найти!".
*Определитесь, кто Вы:
Внимание! Время в таблицах - всемирное. Для получения местного времени необходимо прибавить поправку, которая равна 1 ч.
Смотрите также архив погоды в соседних городах и на ближайших метеорологических станциях:
Партнеры нашего сайта:      
Пояснения к столбцам:
  • Ветер - указаны скорость ветра в м/с - средняя за 10 мин, порывы в срок и между сроками (в фигурных скобках) и направление, откуда дует ветер: С - северный,
  • СВ - северо-восточный, В - восточный, ЮВ - юго-восточный, Ю - южный, ЮЗ - юго-западный, З - западный, СЗ - северо-западный.
  • Видимость - горизонтальная дальность видимости в метрах или километрах. При видимости от 1 до 10 км при отсутствии осадков обычно наблюдается дымка, при ухудшении видимости до 1 км и менее - туман. В сухую погоду видимость может ухудшаться дымом, пылью или мглою.
  • Явления - указаны атмосферные явления, наблюдавшиеся в срок или в последний час перед сроком; фигурными скобками обозначены явления, наблюдавшиеся между сроками (за 1-3 часа до срока); квадратными скобками обозначены град или гололедные отложения с указанием их диаметра в мм.
  • Облачность - указаны через наклонную черту общая и нижняя облачность в баллах и высота нижней границы облаков в метрах; квадратными скобками обозначены формы облаков: Ci - перистые, Cs - перисто-слоистые, Cc - перисто-кучевые, Ac - высококучевые, As - высокослоистые, Sc - слоисто-кучевые, Ns - слоисто-дождевые, Cu - кучевые, Cb - кучево-дождевые. Подробнее классификацию облаков см. в Атласе облаков (PDF).
  • T - Температура воздуха - температура, измеренная на высоте 2 м над землей.
  • Td - Температура точки росы - температура, при понижении до которой содержащийся в воздухе водяной пар достигнет насыщения.
  • f - Относительная влажность воздуха - влажноcть воздуха, измеренная на высоте 2 м над землей.
  • Te - Эффективная температура - температура, которую ощущает одетый по сезону человек в тени. Характеристика душности погоды. При расчете учитывается влияние влажности воздуха и скорости ветра на теплоощущения человека.
  • Tes - Эффективная температура на солнце - температура, которую ощущает человек, с поправкой на солнечный нагрев. Характеристика знойности погоды. Зависит от высоты солнца над горизонтом, облачности и скорости ветра. Ночью, в пасмурную погоду, а также при ветре 12 м/с и более поправка равна нулю.
  • P - Атмосферное давление - приведенное к уровню моря атмосферное давление.
  • Po - Атмосферное давление - измеренное на уровне метеостанции атмосферное давление.
  • Tmin - Минимальная температура - минимум температуры воздуха на высоте 2 м над землей.
  • Tmax - Максимальная температура - максимум температуры воздуха на высоте 2 м над землей.
  • R - Количество осадков - Количество выпавших осадков за период времени, мм. При наведении курсора мыши на число - период времени, за который выпало указанное количество осадков.
  • R24 - Количество осадков - Количество выпавших осадков за 24 часа, мм.
  • S - Снежный покров - Высота снежного покрова, см. При наведении курсора мыши на число - состояние снежного покрова и степень покрытия местности в баллах.